FW5242 Weather Reports


time (UTC)temp
C
wind
direction
speed
KPH
gust
KPH
rain 1hr
cm
rain 24hr
cm
rain mn
cm
humidity
%
barometer
mb
20260510044553 6 360 0.0 1.6 0.00 1.14 0.00 95 1012.1
20260510043047 6 360 0.0 3.2 0.00 1.14 0.00 95 1012.0
20260510041536 6 360 0.0 3.2 0.00 1.14 0.00 95 1012.2
20260510040041 6 360 0.0 3.2 0.00 1.14 0.00 95 1012.1
20260510034535 6 360 0.0 3.2 0.00 1.14 1.14 94 1011.8
20260510033048 6 360 0.0 0.0 0.00 1.14 1.14 94 1011.2
20260510031536 7 360 0.0 1.6 0.00 1.14 1.14 94 1011.3
20260510030041 7 360 0.0 1.6 0.00 1.14 1.14 94 1011.2
20260510024529 7 360 0.0 3.2 0.00 1.14 1.14 94 1011.4
20260510023028 7 360 0.0 1.6 0.00 1.14 1.14 94 1011.4
20260510021528 7 360 0.0 3.2 0.00 1.14 1.14 94 1011.1
20260510020029 7 360 0.0 3.2 0.00 1.14 1.14 93 1011.1
20260510014534 8 360 0.0 1.6 0.00 1.14 1.14 93 1011.2
20260510013027 8 360 0.0 3.2 0.00 1.14 1.14 93 1010.9
20260510011526 8 360 0.0 3.2 0.00 1.14 1.14 93 1011.0
20260510010028 8 360 1.6 3.2 0.00 1.14 1.14 92 1010.7
20260510004525 9 360 1.6 3.2 0.00 1.14 1.14 91 1010.7
20260510003025 10 360 0.0 1.6 0.00 1.14 1.14 91 1010.6
20260510001524 11 360 0.0 3.2 0.00 1.14 1.14 90 1010.6
20260510000024 11 360 0.0 6.4 0.00 1.14 1.14 90 1010.7
20260509234530 11 360 1.6 4.8 0.03 1.14 1.14 90 1010.4
20260509233022 11 360 0.0 6.4 0.03 1.14 1.14 90 1010.1
20260509231522 12 360 1.6 14.5 0.05 1.14 1.14 90 1009.7
20260509230023 12 360 3.2 16.1 0.05 1.14 1.14 90 1010.1
20260509224520 12 360 3.2 16.1 0.05 1.12 1.12 91 1009.9
20260509223021 12 187 3.2 9.7 0.08 1.12 1.12 92 1009.8
20260509221519 12 360 1.6 12.9 0.05 1.09 1.09 93 1009.7
20260509220014 12 152 3.2 8.0 0.08 1.09 1.09 94 1010.2
20260509214512 11 360 3.2 6.4 0.08 1.07 1.07 95 1010.4
20260509213110 11 360 3.2 6.4 0.05 1.04 1.04 95 1010.5
20260509211508 11 360 0.0 4.8 0.08 1.04 1.04 95 1010.6
20260509210015 11 360 0.0 3.2 0.08 1.02 1.02 95 1010.6
20260509204504 11 360 0.0 3.2 0.08 0.99 0.99 94 1010.6
20260509203003 11 360 1.6 4.8 0.08 0.97 0.97 94 1010.7
20260509201503 11 360 1.6 9.7 0.08 0.97 0.97 94 1010.7
20260509200109 11 360 0.0 8.0 0.08 0.94 0.94 94 1010.8
20260509194553 10 360 3.2 14.5 0.08 0.91 0.91 94 1010.9
20260509193110 10 360 1.6 9.7 0.05 0.89 0.89 94 1011.1
20260509191545 10 360 4.8 17.7 0.08 0.89 0.89 94 1011.2
20260509190041 10 360 6.4 14.5 0.08 0.86 0.86 94 1011.3
20260509184542 10 360 4.8 12.9 0.08 0.84 0.84 94 1011.5
20260509183035 10 360 3.2 16.1 0.10 0.84 0.84 94 1011.5
20260509181528 10 360 4.8 14.5 0.10 0.81 0.81 94 1011.4
20260509180025 10 360 3.2 12.9 0.10 0.79 0.79 94 1011.4
20260509174519 10 360 4.8 16.1 0.08 0.79 0.76 95 1011.4
20260509173020 10 360 4.8 16.1 0.08 0.76 0.71 95 1011.3
20260509171527 10 360 8.0 16.1 0.08 0.71 0.71 95 1011.3
20260509170016 10 360 4.8 16.1 0.08 0.71 0.69 95 1011.2
20260509164515 10 360 4.8 9.7 0.08 0.81 0.69 95 1011.3
20260509163013 10 360 4.8 14.5 0.08 0.79 0.66 95 1011.5
20260509161512 10 360 4.8 8.0 0.08 0.76 0.64 95 1011.5
20260509160017 10 360 1.6 4.8 0.08 0.71 0.61 96 1011.7
20260509154511 10 360 1.6 4.8 0.08 0.71 0.61 96 1012.0
20260509153009 10 360 1.6 4.8 0.08 0.71 0.58 96 1012.1
20260509151504 10 360 0.0 1.6 0.05 0.69 0.56 96 1012.3
20260509150001 10 360 0.0 3.2 0.05 0.66 0.53 96 1012.2
20260509144709 10 360 0.0 1.6 0.05 0.66 0.53 96 1012.5
20260509143100 10 360 0.0 1.6 0.05 0.64 0.51 96 1012.6
20260509141559 9 360 0.0 1.6 0.05 0.64 0.51 96 1012.5
20260509140100 9 360 0.0 1.6 0.05 0.61 0.48 96 1012.5
20260509134556 9 360 0.0 1.6 0.05 0.61 0.48 96 1012.3
20260509133054 9 360 0.0 1.6 0.05 0.58 0.46 96 1012.3
20260509131553 9 360 0.0 3.2 0.05 0.58 0.46 96 1012.0
20260509124605 9 360 1.6 3.2 0.05 0.56 0.43 96 1012.2
20260509123048 9 360 1.6 3.2 0.03 0.53 0.41 95 1012.4
20260509121547 8 360 0.0 0.0 0.03 0.53 0.41 96 1012.2
20260509120045 8 360 0.0 1.6 0.00 0.51 0.38 96 1012.3
20260509114542 8 360 0.0 1.6 0.00 0.51 0.38 96 1012.3
20260509113041 8 360 0.0 1.6 0.00 0.51 0.38 96 1012.3
20260509111538 8 360 0.0 1.6 0.03 0.51 0.38 95 1012.8
20260509110038 8 360 0.0 1.6 0.05 0.51 0.38 95 1012.8
20260509104538 8 360 0.0 1.6 0.08 0.51 0.38 95 1012.7
20260509103035 8 360 0.0 3.2 0.05 0.48 0.36 95 1012.5
20260509101534 7 360 0.0 1.6 0.08 0.48 0.36 95 1012.6
20260509100047 7 360 0.0 1.6 0.05 0.46 0.33 95 1013.0
20260509094535 7 360 0.0 1.6 0.05 0.43 0.30 95 1012.9
20260509093034 7 360 0.0 3.2 0.08 0.43 0.30 94 1012.8
20260509091530 7 360 0.0 3.2 0.08 0.41 0.28 94 1012.9
20260509090029 7 360 0.0 3.2 0.10 0.41 0.28 94 1012.9
20260509084531 7 360 0.0 1.6 0.10 0.38 0.25 95 1013.1
20260509083025 7 360 0.0 1.6 0.10 0.36 0.23 94 1013.5
20260509081539 7 360 0.0 3.2 0.10 0.33 0.20 94 1013.2
20260509080023 7 360 0.0 1.6 0.10 0.30 0.18 94 1013.3
20260509074522 7 360 0.0 1.6 0.10 0.28 0.15 94 1013.3
20260509073020 7 360 0.0 0.0 0.10 0.25 0.13 94 1013.6
20260509071520 7 360 0.0 1.6 0.08 0.23 0.10 94 1013.8
20260509070019 7 360 0.0 3.2 0.08 0.20 0.08 94 1013.7
20260509064518 7 360 0.0 1.6 0.05 0.20 0.05 94 1013.8
20260509063017 7 360 0.0 1.6 0.03 0.18 0.03 94 1014.3
20260509061515 7 360 0.0 1.6 0.03 0.18 0.03 93 1014.2
20260509060015 7 360 0.0 1.6 0.00 0.15 0.00 93 1014.3
20260509054521 7 360 1.6 3.2 0.00 0.23 0.00 93 1014.0
20260509053013 7 360 0.0 1.6 0.00 0.23 0.00 93 1013.6
20260509051515 6 360 0.0 1.6 0.00 0.23 0.00 93 1013.8
20260509050012 6 360 0.0 3.2 0.00 0.23 0.00 92 1013.9